Location: Normandy Village
(37.8755°N, 122.2655°W)
Time: 19:12:41
(UTC+00:00)

Okean 1 - Pass Details

Date: 22 September 2019
Orbit: 540 x 554 km, 82.5° (Epoch: 20 October)

Event Time Altitude Azimuth Distance (km) Brightness Sun altitude
Rises 12:40:52 0° 182° (S) 2,682 6.7 -15.7°
Reaches altitude 10° 12:43:00 10° 181° (S) 1,795 5.8 -15.3°
Maximum altitude 12:46:56 76° 96° (E) 562 3.4 -14.5°
Drops below altitude 10° 12:50:55 10° 11° (N) 1,812 6.2 -13.7°
Sets 12:53:05 0° 9° (N) 2,711 7.1 -13.3°
